Time,TemperatureF,DewpointF,PressureIn,WindDirection,WindDirectionDegrees,WindSpeedMPH,WindSpeedGustMPH,Humidity,HourlyPrecipIn,Conditions,Clouds,dailyrainin,SolarRadiationWatts/m^2,SoftwareType,DateUTC
2013-10-07 00:03:00,60.5,19.2,30.00,North,355,0.0,-999.0,20,0.00,,,0.00,0.0,WeatherSnoop3.0,2013-10-07 07:03:00,
2013-10-07 00:08:00,60.5,18.0,30.00,NNW,330,0.0,-999.0,19,0.00,,,0.00,0.0,WeatherSnoop3.0,2013-10-07 07:08:00,
2013-10-07 00:13:00,60.5,19.2,29.99,NNE,32,0.0,-999.0,20,0.00,,,0.00,0.0,WeatherSnoop3.0,2013-10-07 07:13:00,
2013-10-07 00:18:00,60.5,19.2,29.99,NNE,14,0.0,-999.0,20,0.00,,,0.00,0.0,WeatherSnoop3.0,2013-10-07 07:18:00,
2013-10-07 00:23:00,60.5,18.0,29.99,NE,40,3.0,-999.0,19,0.00,,,0.00,0.0,WeatherSnoop3.0,2013-10-07 07:23:00,
2013-10-07 00:28:00,60.5,18.0,29.99,NNE,24,0.0,-999.0,19,0.00,,,0.00,0.0,WeatherSnoop3.0,2013-10-07 07:28:00,
2013-10-07 00:33:00,60.4,19.2,29.99,NE,38,0.0,-999.0,20,0.00,,,0.00,0.0,WeatherSnoop3.0,2013-10-07 07:33:00,
2013-10-07 00:38:00,60.4,18.0,30.00,North,10,0.0,-999.0,19,0.00,,,0.00,0.0,WeatherSnoop3.0,2013-10-07 07:38:00,
2013-10-07 00:43:00,60.3,19.1,29.99,NNE,29,0.0,-999.0,20,0.00,,,0.00,0.0,WeatherSnoop3.0,2013-10-07 07:43:00,
2013-10-07 00:48:00,60.3,17.9,29.99,NE,44,0.0,-999.0,19,0.00,,,0.00,0.0,WeatherSnoop3.0,2013-10-07 07:48:00,
2013-10-07 00:53:00,60.4,18.0,29.99,NW,323,2.0,-999.0,19,0.00,,,0.00,0.0,WeatherSnoop3.0,2013-10-07 07:53:00,
2013-10-07 00:58:00,60.3,17.9,30.00,NE,36,0.0,-999.0,19,0.00,,,0.00,0.0,WeatherSnoop3.0,2013-10-07 07:58:00,
2013-10-07 01:03:00,60.3,17.9,30.00,NW,325,2.0,-999.0,19,0.00,,,0.00,0.0,WeatherSnoop3.0,2013-10-07 08:03:00,
2013-10-07 01:08:00,60.3,17.9,30.00,North,355,1.0,-999.0,19,0.00,,,0.00,0.0,WeatherSnoop3.0,2013-10-07 08:08:00,
2013-10-07 01:13:00,60.2,19.0,30.00,NNE,32,0.0,-999.0,20,0.00,,,0.00,0.0,WeatherSnoop3.0,2013-10-07 08:13:00,
2013-10-07 01:18:00,60.1,17.7,29.99,NE,50,0.0,-999.0,19,0.00,,,0.00,0.0,WeatherSnoop3.0,2013-10-07 08:18:00,
2013-10-07 01:23:00,60.0,17.6,29.99,NNE,12,2.0,-999.0,19,0.00,,,0.00,0.0,WeatherSnoop3.0,2013-10-07 08:23:00,
2013-10-07 01:28:00,60.0,17.6,29.99,NE,39,2.0,-999.0,19,0.00,,,0.00,0.0,WeatherSnoop3.0,2013-10-07 08:28:00,
2013-10-07 01:33:00,60.0,18.8,29.99,North,360,3.0,-999.0,20,0.00,,,0.00,0.0,WeatherSnoop3.0,2013-10-07 08:33:00,
2013-10-07 01:38:00,60.0,17.6,29.99,NE,52,2.0,-999.0,19,0.00,,,0.00,0.0,WeatherSnoop3.0,2013-10-07 08:38:00,
2013-10-07 01:43:00,60.1,16.5,29.98,North,355,2.0,-999.0,18,0.00,,,0.00,0.0,WeatherSnoop3.0,2013-10-07 08:43:00,
2013-10-07 01:48:00,60.4,16.7,29.99,NNE,25,3.0,-999.0,18,0.00,,,0.00,0.0,WeatherSnoop3.0,2013-10-07 08:48:00,
2013-10-07 01:53:00,60.3,16.6,29.99,North,355,4.0,-999.0,18,0.00,,,0.00,0.0,WeatherSnoop3.0,2013-10-07 08:53:00,
2013-10-07 01:58:00,60.3,16.6,29.98,North,5,2.0,-999.0,18,0.00,,,0.00,0.0,WeatherSnoop3.0,2013-10-07 08:58:00,
2013-10-07 02:03:00,60.3,16.6,29.98,NNW,346,1.0,-999.0,18,0.00,,,0.00,0.0,WeatherSnoop3.0,2013-10-07 09:03:00,
2013-10-07 02:08:00,60.2,17.8,29.98,NE,51,3.0,-999.0,19,0.00,,,0.00,0.0,WeatherSnoop3.0,2013-10-07 09:08:00,
2013-10-07 02:13:00,59.9,16.3,29.98,NE,44,3.0,-999.0,18,0.00,,,0.00,0.0,WeatherSnoop3.0,2013-10-07 09:13:00,
2013-10-07 02:18:00,59.9,16.3,29.98,NNE,26,3.0,-999.0,18,0.00,,,0.00,0.0,WeatherSnoop3.0,2013-10-07 09:18:00,
2013-10-07 02:23:00,59.9,16.3,29.98,NE,52,4.0,-999.0,18,0.00,,,0.00,0.0,WeatherSnoop3.0,2013-10-07 09:23:00,
2013-10-07 02:28:00,60.0,16.4,29.98,North,355,1.0,-999.0,18,0.00,,,0.00,0.0,WeatherSnoop3.0,2013-10-07 09:28:00,
2013-10-07 02:33:00,60.1,16.5,29.97,NNE,28,2.0,-999.0,18,0.00,,,0.00,0.0,WeatherSnoop3.0,2013-10-07 09:33:00,
2013-10-07 02:38:00,60.0,16.4,29.97,NNE,30,2.0,-999.0,18,0.00,,,0.00,0.0,WeatherSnoop3.0,2013-10-07 09:38:00,
2013-10-07 02:43:00,59.8,16.2,29.97,North,355,5.0,-999.0,18,0.00,,,0.00,0.0,WeatherSnoop3.0,2013-10-07 09:43:00,
2013-10-07 02:48:00,59.6,17.3,29.97,NE,36,2.0,-999.0,19,0.00,,,0.00,0.0,WeatherSnoop3.0,2013-10-07 09:48:00,
2013-10-07 02:53:00,59.3,17.1,29.97,NNE,19,0.0,-999.0,19,0.00,,,0.00,0.0,WeatherSnoop3.0,2013-10-07 09:53:00,
2013-10-07 02:58:00,59.1,16.9,29.97,North,5,1.0,-999.0,19,0.00,,,0.00,0.0,WeatherSnoop3.0,2013-10-07 09:58:00,
2013-10-07 03:03:00,59.0,16.8,29.97,North,355,0.0,-999.0,19,0.00,,,0.00,0.0,WeatherSnoop3.0,2013-10-07 10:03:00,
2013-10-07 03:08:00,59.0,16.8,29.97,NW,313,1.0,-999.0,19,0.00,,,0.00,0.0,WeatherSnoop3.0,2013-10-07 10:08:00,
2013-10-07 03:13:00,59.0,16.8,29.97,North,355,0.0,-999.0,19,0.00,,,0.00,0.0,WeatherSnoop3.0,2013-10-07 10:13:00,
2013-10-07 03:18:00,58.6,16.5,29.97,North,5,2.0,-999.0,19,0.00,,,0.00,0.0,WeatherSnoop3.0,2013-10-07 10:18:00,
2013-10-07 03:23:00,58.5,16.4,29.97,NNE,25,4.0,-999.0,19,0.00,,,0.00,0.0,WeatherSnoop3.0,2013-10-07 10:23:00,
2013-10-07 03:28:00,58.5,16.4,29.97,North,5,0.0,-999.0,19,0.00,,,0.00,0.0,WeatherSnoop3.0,2013-10-07 10:28:00,
2013-10-07 03:33:00,58.5,16.4,29.97,North,360,2.0,-999.0,19,0.00,,,0.00,0.0,WeatherSnoop3.0,2013-10-07 10:33:00,
2013-10-07 03:38:00,58.4,16.3,29.97,North,351,2.0,-999.0,19,0.00,,,0.00,0.0,WeatherSnoop3.0,2013-10-07 10:38:00,
2013-10-07 03:43:00,58.3,16.2,29.97,NNW,348,1.0,-999.0,19,0.00,,,0.00,0.0,WeatherSnoop3.0,2013-10-07 10:43:00,
2013-10-07 03:48:00,58.2,16.2,29.97,North,360,1.0,-999.0,19,0.00,,,0.00,0.0,WeatherSnoop3.0,2013-10-07 10:48:00,
2013-10-07 03:53:00,58.1,16.1,29.98,NNW,344,7.0,-999.0,19,0.00,,,0.00,0.0,WeatherSnoop3.0,2013-10-07 10:53:00,
2013-10-07 03:58:00,58.1,16.1,29.97,NE,41,0.0,-999.0,19,0.00,,,0.00,0.0,WeatherSnoop3.0,2013-10-07 10:58:00,
2013-10-07 04:03:00,58.1,16.1,29.97,NE,38,2.0,-999.0,19,0.00,,,0.00,0.0,WeatherSnoop3.0,2013-10-07 11:03:00,
2013-10-07 04:08:00,58.0,16.0,29.97,NNE,17,0.0,-999.0,19,0.00,,,0.00,0.0,WeatherSnoop3.0,2013-10-07 11:08:00,
2013-10-07 04:13:00,57.9,15.9,29.97,North,351,1.0,-999.0,19,0.00,,,0.00,0.0,WeatherSnoop3.0,2013-10-07 11:13:00,
2013-10-07 04:18:00,57.7,15.7,29.96,NE,41,2.0,-999.0,19,0.00,,,0.00,0.0,WeatherSnoop3.0,2013-10-07 11:18:00,
2013-10-07 04:23:00,57.5,15.6,29.96,NE,43,0.0,-999.0,19,0.00,,,0.00,0.0,WeatherSnoop3.0,2013-10-07 11:23:00,
2013-10-07 04:28:00,57.4,15.5,29.96,NE,45,4.0,-999.0,19,0.00,,,0.00,0.0,WeatherSnoop3.0,2013-10-07 11:28:00,
2013-10-07 04:33:00,57.3,14.2,29.96,NNW,342,1.0,-999.0,18,0.00,,,0.00,0.0,WeatherSnoop3.0,2013-10-07 11:33:00,
2013-10-07 04:38:00,57.4,15.5,29.96,WNW,302,9.0,-999.0,19,0.00,,,0.00,0.0,WeatherSnoop3.0,2013-10-07 11:38:00,
2013-10-07 04:43:00,57.4,14.3,29.96,WNW,295,2.0,-999.0,18,0.00,,,0.00,0.0,WeatherSnoop3.0,2013-10-07 11:43:00,
2013-10-07 04:48:00,57.3,15.4,29.96,North,360,1.0,-999.0,19,0.00,,,0.00,0.0,WeatherSnoop3.0,2013-10-07 11:48:00,
2013-10-07 04:53:00,57.3,15.4,29.96,NE,36,6.0,-999.0,19,0.00,,,0.00,0.0,WeatherSnoop3.0,2013-10-07 11:53:00,
2013-10-07 04:58:00,57.4,14.3,29.96,NE,53,5.0,-999.0,18,0.00,,,0.00,0.0,WeatherSnoop3.0,2013-10-07 11:58:00,
2013-10-07 05:03:00,57.5,14.3,29.96,NNW,338,1.0,-999.0,18,0.00,,,0.00,0.0,WeatherSnoop3.0,2013-10-07 12:03:00,
2013-10-07 05:08:00,57.5,15.6,29.96,NE,37,1.0,-999.0,19,0.00,,,0.00,0.0,WeatherSnoop3.0,2013-10-07 12:08:00,
2013-10-07 05:13:00,57.4,15.5,29.96,NE,53,0.0,-999.0,19,0.00,,,0.00,0.0,WeatherSnoop3.0,2013-10-07 12:13:00,
2013-10-07 05:18:00,57.3,15.4,29.96,NNE,27,1.0,-999.0,19,0.00,,,0.00,0.0,WeatherSnoop3.0,2013-10-07 12:18:00,
2013-10-07 05:23:00,57.1,14.0,29.96,North,11,1.0,-999.0,18,0.00,,,0.00,0.0,WeatherSnoop3.0,2013-10-07 12:23:00,
2013-10-07 05:28:00,57.2,15.3,29.96,NNW,346,6.0,-999.0,19,0.00,,,0.00,0.0,WeatherSnoop3.0,2013-10-07 12:28:00,
2013-10-07 05:33:00,57.3,15.4,29.97,NE,39,0.0,-999.0,19,0.00,,,0.00,0.0,WeatherSnoop3.0,2013-10-07 12:33:00,
2013-10-07 05:38:00,57.3,15.4,29.97,NE,42,1.0,-999.0,19,0.00,,,0.00,0.0,WeatherSnoop3.0,2013-10-07 12:38:00,
2013-10-07 05:43:00,57.2,14.1,29.97,NE,40,2.0,-999.0,18,0.00,,,0.00,0.0,WeatherSnoop3.0,2013-10-07 12:43:00,
2013-10-07 05:48:00,57.2,14.1,29.97,North,350,4.0,-999.0,18,0.00,,,0.00,0.0,WeatherSnoop3.0,2013-10-07 12:48:00,
2013-10-07 05:53:00,57.3,14.2,29.96,NNW,333,2.0,-999.0,18,0.00,,,0.00,0.0,WeatherSnoop3.0,2013-10-07 12:53:00,
2013-10-07 05:58:00,57.3,14.2,29.97,North,5,0.0,-999.0,18,0.00,,,0.00,0.0,WeatherSnoop3.0,2013-10-07 12:58:00,
2013-10-07 06:03:00,57.3,14.2,29.97,NNE,30,0.0,-999.0,18,0.00,,,0.00,0.0,WeatherSnoop3.0,2013-10-07 13:03:00,
2013-10-07 06:08:00,57.3,14.2,29.97,North,360,4.0,-999.0,18,0.00,,,0.00,0.0,WeatherSnoop3.0,2013-10-07 13:08:00,
2013-10-07 06:13:00,57.3,14.2,29.96,NE,36,0.0,-999.0,18,0.00,,,0.00,0.0,WeatherSnoop3.0,2013-10-07 13:13:00,
2013-10-07 06:18:00,57.2,14.1,29.97,NNE,29,1.0,-999.0,18,0.00,,,0.00,0.0,WeatherSnoop3.0,2013-10-07 13:18:00,
2013-10-07 06:23:00,57.1,15.2,29.97,ENE,68,0.0,-999.0,19,0.00,,,0.00,0.0,WeatherSnoop3.0,2013-10-07 13:23:00,
2013-10-07 06:28:00,57.0,13.9,29.97,NNW,340,0.0,-999.0,18,0.00,,,0.00,0.0,WeatherSnoop3.0,2013-10-07 13:28:00,
2013-10-07 06:33:00,57.0,15.2,29.97,NNW,340,0.0,-999.0,19,0.00,,,0.00,0.0,WeatherSnoop3.0,2013-10-07 13:33:00,
2013-10-07 06:38:00,56.8,15.0,29.97,NNE,27,0.0,-999.0,19,0.00,,,0.00,0.0,WeatherSnoop3.0,2013-10-07 13:38:00,
2013-10-07 06:43:00,56.5,14.8,29.97,NE,38,0.0,-999.0,19,0.00,,,0.00,0.0,WeatherSnoop3.0,2013-10-07 13:43:00,
2013-10-07 06:48:00,56.4,17.0,29.97,NE,38,0.0,-999.0,21,0.00,,,0.00,0.0,WeatherSnoop3.0,2013-10-07 13:48:00,
2013-10-07 06:53:00,56.1,21.7,29.97,NE,38,0.0,-999.0,26,0.00,,,0.00,0.0,WeatherSnoop3.0,2013-10-07 13:53:00,
2013-10-07 06:58:00,55.5,18.3,29.97,NE,44,0.0,-999.0,23,0.00,,,0.00,0.0,WeatherSnoop3.0,2013-10-07 13:58:00,
2013-10-07 07:03:00,55.0,18.9,29.97,NE,56,0.0,-999.0,24,0.00,,,0.00,9.0,WeatherSnoop3.0,2013-10-07 14:03:00,
2013-10-07 07:08:00,54.5,19.4,29.98,ENE,57,0.0,-999.0,25,0.00,,,0.00,12.0,WeatherSnoop3.0,2013-10-07 14:08:00,
2013-10-07 07:13:00,54.0,19.0,29.98,NE,56,0.0,-999.0,25,0.00,,,0.00,16.0,WeatherSnoop3.0,2013-10-07 14:13:00,
2013-10-07 07:18:00,53.5,21.2,29.99,ENE,57,0.0,-999.0,28,0.00,,,0.00,21.0,WeatherSnoop3.0,2013-10-07 14:18:00,
2013-10-07 07:23:00,53.0,22.4,29.99,ENE,57,0.0,-999.0,30,0.00,,,0.00,25.0,WeatherSnoop3.0,2013-10-07 14:23:00,
2013-10-07 07:28:00,52.4,21.9,29.99,NE,56,0.0,-999.0,30,0.00,,,0.00,28.0,WeatherSnoop3.0,2013-10-07 14:28:00,
2013-10-07 07:33:00,51.7,21.3,29.99,ENE,57,0.0,-999.0,30,0.00,,,0.00,30.0,WeatherSnoop3.0,2013-10-07 14:33:00,
2013-10-07 07:38:00,51.2,21.6,29.99,ENE,57,0.0,-999.0,31,0.00,,,0.00,40.0,WeatherSnoop3.0,2013-10-07 14:38:00,
2013-10-07 07:43:00,50.8,20.5,29.99,South,181,0.0,-999.0,30,0.00,,,0.00,56.0,WeatherSnoop3.0,2013-10-07 14:43:00,
2013-10-07 07:48:00,50.4,20.9,29.98,SSW,198,0.0,-999.0,31,0.00,,,0.00,65.0,WeatherSnoop3.0,2013-10-07 14:48:00,
2013-10-07 07:53:00,50.2,22.2,29.99,SSW,198,0.0,-999.0,33,0.00,,,0.00,74.0,WeatherSnoop3.0,2013-10-07 14:53:00,
2013-10-07 07:58:00,50.0,22.0,29.98,SSW,198,0.0,-999.0,33,0.00,,,0.00,165.0,WeatherSnoop3.0,2013-10-07 14:58:00,
2013-10-07 08:03:00,50.0,22.8,29.98,SSW,198,0.0,-999.0,34,0.00,,,0.00,197.0,WeatherSnoop3.0,2013-10-07 15:03:00,
2013-10-07 08:08:00,50.3,25.7,29.98,SSW,198,0.0,-999.0,38,0.00,,,0.00,114.0,WeatherSnoop3.0,2013-10-07 15:08:00,
2013-10-07 08:13:00,50.5,24.6,29.98,SSW,198,0.0,-999.0,36,0.00,,,0.00,109.0,WeatherSnoop3.0,2013-10-07 15:13:00,
2013-10-07 08:18:00,50.9,24.9,29.99,SSW,196,0.0,-999.0,36,0.00,,,0.00,176.0,WeatherSnoop3.0,2013-10-07 15:18:00,
2013-10-07 08:23:00,51.4,24.0,29.99,SSE,153,0.0,-999.0,34,0.00,,,0.00,151.0,WeatherSnoop3.0,2013-10-07 15:23:00,
2013-10-07 08:28:00,52.0,23.8,29.98,SSE,153,0.0,-999.0,33,0.00,,,0.00,165.0,WeatherSnoop3.0,2013-10-07 15:28:00,
2013-10-07 08:33:00,52.6,23.6,29.98,SSE,153,0.0,-999.0,32,0.00,,,0.00,135.0,WeatherSnoop3.0,2013-10-07 15:33:00,
2013-10-07 08:38:00,53.0,23.9,29.98,SSE,153,0.0,-999.0,32,0.00,,,0.00,151.0,WeatherSnoop3.0,2013-10-07 15:38:00,
2013-10-07 08:43:00,53.5,23.6,29.98,South,171,2.0,-999.0,31,0.00,,,0.00,285.0,WeatherSnoop3.0,2013-10-07 15:43:00,
2013-10-07 08:48:00,54.1,27.1,29.98,South,171,0.0,-999.0,35,0.00,,,0.00,171.0,WeatherSnoop3.0,2013-10-07 15:48:00,
2013-10-07 08:53:00,54.6,27.5,29.98,South,171,0.0,-999.0,35,0.00,,,0.00,165.0,WeatherSnoop3.0,2013-10-07 15:53:00,
2013-10-07 08:58:00,55.1,25.8,29.99,South,171,0.0,-999.0,32,0.00,,,0.00,338.0,WeatherSnoop3.0,2013-10-07 15:58:00,
2013-10-07 09:03:00,55.7,24.8,29.98,South,171,2.0,-999.0,30,0.00,,,0.00,464.0,WeatherSnoop3.0,2013-10-07 16:03:00,
2013-10-07 09:08:00,56.5,23.8,29.98,South,171,0.0,-999.0,28,0.00,,,0.00,251.0,WeatherSnoop3.0,2013-10-07 16:08:00,
2013-10-07 09:13:00,57.2,28.4,29.99,South,171,0.0,-999.0,33,0.00,,,0.00,178.0,WeatherSnoop3.0,2013-10-07 16:13:00,
2013-10-07 09:18:00,57.5,27.9,29.99,South,171,0.0,-999.0,32,0.00,,,0.00,197.0,WeatherSnoop3.0,2013-10-07 16:18:00,
2013-10-07 09:23:00,58.0,30.5,29.98,South,171,0.0,-999.0,35,0.00,,,0.00,585.0,WeatherSnoop3.0,2013-10-07 16:23:00,
2013-10-07 09:28:00,59.7,23.8,29.98,South,171,0.0,-999.0,25,0.00,,,0.00,615.0,WeatherSnoop3.0,2013-10-07 16:28:00,
2013-10-07 09:33:00,61.6,22.4,29.98,South,171,0.0,-999.0,22,0.00,,,0.00,596.0,WeatherSnoop3.0,2013-10-07 16:33:00,
2013-10-07 09:38:00,62.2,19.4,29.97,South,171,0.0,-999.0,19,0.00,,,0.00,413.0,WeatherSnoop3.0,2013-10-07 16:38:00,
2013-10-07 09:43:00,62.6,22.1,29.97,South,171,0.0,-999.0,21,0.00,,,0.00,243.0,WeatherSnoop3.0,2013-10-07 16:43:00,
2013-10-07 09:48:00,62.9,24.5,29.97,South,171,0.0,-999.0,23,0.00,,,0.00,406.0,WeatherSnoop3.0,2013-10-07 16:48:00,
2013-10-07 09:53:00,63.5,24.0,29.97,South,171,0.0,-999.0,22,0.00,,,0.00,392.0,WeatherSnoop3.0,2013-10-07 16:53:00,
2013-10-07 09:58:00,64.5,21.3,29.97,NNE,27,0.0,-999.0,19,0.00,,,0.00,367.0,WeatherSnoop3.0,2013-10-07 16:58:00,
2013-10-07 10:03:00,65.9,19.9,29.97,ENE,67,0.0,-999.0,17,0.00,,,0.00,622.0,WeatherSnoop3.0,2013-10-07 17:03:00,
2013-10-07 10:09:00,66.3,18.8,29.96,NE,42,0.0,-999.0,16,0.00,,,0.00,257.0,WeatherSnoop3.0,2013-10-07 17:09:00,
2013-10-07 10:14:00,66.4,20.3,29.96,NNE,27,0.0,-999.0,17,0.00,,,0.00,626.0,WeatherSnoop3.0,2013-10-07 17:14:00,
2013-10-07 10:19:00,67.1,20.8,29.95,NNE,26,0.0,-999.0,17,0.00,,,0.00,712.0,WeatherSnoop3.0,2013-10-07 17:19:00,
2013-10-07 10:24:00,67.8,20.0,29.95,NNE,26,0.0,-999.0,16,0.00,,,0.00,693.0,WeatherSnoop3.0,2013-10-07 17:24:00,
2013-10-07 10:29:00,68.4,19.0,29.95,NNE,26,0.0,-999.0,15,0.00,,,0.00,742.0,WeatherSnoop3.0,2013-10-07 17:29:00,
2013-10-07 10:34:00,69.0,22.4,29.95,NNE,27,0.0,-999.0,17,0.00,,,0.00,763.0,WeatherSnoop3.0,2013-10-07 17:34:00,
2013-10-07 10:39:00,69.4,19.8,29.95,NNE,26,0.0,-999.0,15,0.00,,,0.00,448.0,WeatherSnoop3.0,2013-10-07 17:39:00,
2013-10-07 10:44:00,69.4,26.6,29.94,NNE,27,1.0,-999.0,20,0.00,,,0.00,253.0,WeatherSnoop3.0,2013-10-07 17:44:00,
2013-10-07 10:49:00,69.1,25.1,29.94,NNE,27,0.0,-999.0,19,0.00,,,0.00,473.0,WeatherSnoop3.0,2013-10-07 17:49:00,
2013-10-07 10:54:00,68.9,22.3,29.94,SE,126,0.0,-999.0,17,0.00,,,0.00,323.0,WeatherSnoop3.0,2013-10-07 17:54:00,
2013-10-07 10:59:00,68.7,23.5,29.94,SE,127,0.0,-999.0,18,0.00,,,0.00,297.0,WeatherSnoop3.0,2013-10-07 17:59:00,
2013-10-07 11:04:00,68.3,24.5,29.93,SE,126,0.0,-999.0,19,0.00,,,0.00,309.0,WeatherSnoop3.0,2013-10-07 18:04:00,
2013-10-07 11:09:00,67.9,24.1,29.93,SE,126,0.0,-999.0,19,0.00,,,0.00,308.0,WeatherSnoop3.0,2013-10-07 18:09:00,
2013-10-07 11:14:00,67.7,25.2,29.93,SE,127,0.0,-999.0,20,0.00,,,0.00,255.0,WeatherSnoop3.0,2013-10-07 18:14:00,
2013-10-07 11:19:00,67.6,23.9,29.93,SSE,159,0.0,-999.0,19,0.00,,,0.00,193.0,WeatherSnoop3.0,2013-10-07 18:19:00,
2013-10-07 11:24:00,67.5,23.8,29.92,SSE,159,0.0,-999.0,19,0.00,,,0.00,239.0,WeatherSnoop3.0,2013-10-07 18:24:00,
2013-10-07 11:29:00,67.0,23.4,29.92,SSE,159,0.0,-999.0,19,0.00,,,0.00,246.0,WeatherSnoop3.0,2013-10-07 18:29:00,
2013-10-07 11:34:00,66.9,24.5,29.92,SSE,153,0.0,-999.0,20,0.00,,,0.00,884.0,WeatherSnoop3.0,2013-10-07 18:34:00,
2013-10-07 11:39:00,67.5,23.8,29.92,SE,127,0.0,-999.0,19,0.00,,,0.00,454.0,WeatherSnoop3.0,2013-10-07 18:39:00,
2013-10-07 11:44:00,67.9,24.1,29.92,SE,126,0.0,-999.0,19,0.00,,,0.00,717.0,WeatherSnoop3.0,2013-10-07 18:44:00,
2013-10-07 11:49:00,68.8,20.8,29.92,ESE,117,0.0,-999.0,16,0.00,,,0.00,814.0,WeatherSnoop3.0,2013-10-07 18:49:00,
2013-10-07 11:54:00,69.5,22.8,29.91,East,99,0.0,-999.0,17,0.00,,,0.00,1042.0,WeatherSnoop3.0,2013-10-07 18:54:00,
2013-10-07 11:59:00,70.7,23.8,29.91,ESE,117,0.0,-999.0,17,0.00,,,0.00,601.0,WeatherSnoop3.0,2013-10-07 18:59:00,
2013-10-07 12:04:00,71.1,24.1,29.91,SSE,161,0.0,-999.0,17,0.00,,,0.00,371.0,WeatherSnoop3.0,2013-10-07 19:04:00,
2013-10-07 12:09:00,71.2,24.2,29.91,ESE,117,0.0,-999.0,17,0.00,,,0.00,279.0,WeatherSnoop3.0,2013-10-07 19:09:00,
2013-10-07 12:14:00,71.0,24.0,29.91,ESE,117,0.0,-999.0,17,0.00,,,0.00,225.0,WeatherSnoop3.0,2013-10-07 19:14:00,
2013-10-07 12:19:00,70.7,25.1,29.91,ESE,117,0.0,-999.0,18,0.00,,,0.00,253.0,WeatherSnoop3.0,2013-10-07 19:19:00,
2013-10-07 12:24:00,70.8,23.8,29.91,ESE,119,0.0,-999.0,17,0.00,,,0.00,904.0,WeatherSnoop3.0,2013-10-07 19:24:00,
2013-10-07 12:29:00,71.4,24.3,29.90,South,178,0.0,-999.0,17,0.00,,,0.00,265.0,WeatherSnoop3.0,2013-10-07 19:29:00,
2013-10-07 12:34:00,71.7,23.1,29.89,SE,126,0.0,-999.0,16,0.00,,,0.00,970.0,WeatherSnoop3.0,2013-10-07 19:34:00,
2013-10-07 12:39:00,72.2,23.5,29.89,SSW,196,0.0,-999.0,16,0.00,,,0.00,970.0,WeatherSnoop3.0,2013-10-07 19:39:00,
2013-10-07 12:44:00,72.4,27.8,29.89,SSE,168,0.0,-999.0,19,0.00,,,0.00,1027.0,WeatherSnoop3.0,2013-10-07 19:44:00,
2013-10-07 12:49:00,73.1,22.7,29.89,East,91,0.0,-999.0,15,0.00,,,0.00,977.0,WeatherSnoop3.0,2013-10-07 19:49:00,
2013-10-07 12:54:00,73.4,24.5,29.88,SSE,151,0.0,-999.0,16,0.00,,,0.00,977.0,WeatherSnoop3.0,2013-10-07 19:54:00,
2013-10-07 12:59:00,73.6,23.1,29.87,SSE,149,0.0,-999.0,15,0.00,,,0.00,1079.0,WeatherSnoop3.0,2013-10-07 19:59:00,
2013-10-07 13:04:00,74.2,20.2,29.87,SE,137,2.0,-999.0,13,0.00,,,0.00,1032.0,WeatherSnoop3.0,2013-10-07 20:04:00,
2013-10-07 13:09:00,74.8,22.4,29.87,ESE,118,0.0,-999.0,14,0.00,,,0.00,958.0,WeatherSnoop3.0,2013-10-07 20:09:00,
2013-10-07 13:14:00,75.7,24.8,29.87,SE,135,0.0,-999.0,15,0.00,,,0.00,937.0,WeatherSnoop3.0,2013-10-07 20:14:00,
2013-10-07 13:19:00,76.4,23.7,29.87,ESE,106,2.0,-999.0,14,0.00,,,0.00,898.0,WeatherSnoop3.0,2013-10-07 20:19:00,
2013-10-07 13:24:00,76.8,24.0,29.86,ENE,74,0.0,-999.0,14,0.00,,,0.00,728.0,WeatherSnoop3.0,2013-10-07 20:24:00,
2013-10-07 13:29:00,77.0,22.4,29.86,East,89,0.0,-999.0,13,0.00,,,0.00,559.0,WeatherSnoop3.0,2013-10-07 20:29:00,
2013-10-07 13:34:00,76.9,24.1,29.85,SE,144,0.0,-999.0,14,0.00,,,0.00,559.0,WeatherSnoop3.0,2013-10-07 20:34:00,
2013-10-07 13:39:00,76.6,27.0,29.85,East,91,0.0,-999.0,16,0.00,,,0.00,220.0,WeatherSnoop3.0,2013-10-07 20:39:00,
2013-10-07 13:44:00,76.3,28.3,29.85,ESE,106,0.0,-999.0,17,0.00,,,0.00,178.0,WeatherSnoop3.0,2013-10-07 20:44:00,
2013-10-07 13:49:00,76.0,26.6,29.84,ESE,106,0.0,-999.0,16,0.00,,,0.00,148.0,WeatherSnoop3.0,2013-10-07 20:49:00,
2013-10-07 13:54:00,75.9,28.0,29.84,ESE,106,0.0,-999.0,17,0.00,,,0.00,285.0,WeatherSnoop3.0,2013-10-07 20:54:00,
2013-10-07 13:59:00,75.7,26.3,29.84,ESE,106,0.0,-999.0,16,0.00,,,0.00,246.0,WeatherSnoop3.0,2013-10-07 20:59:00,
2013-10-07 14:04:00,75.7,26.3,29.84,ESE,111,0.0,-999.0,16,0.00,,,0.00,309.0,WeatherSnoop3.0,2013-10-07 21:04:00,
2013-10-07 14:09:00,76.2,25.2,29.84,ESE,108,0.0,-999.0,15,0.00,,,0.00,480.0,WeatherSnoop3.0,2013-10-07 21:09:00,
2013-10-07 14:14:00,76.8,24.0,29.83,SSE,157,1.0,-999.0,14,0.00,,,0.00,858.0,WeatherSnoop3.0,2013-10-07 21:14:00,
2013-10-07 14:19:00,77.8,26.4,29.83,SSW,193,0.0,-999.0,15,0.00,,,0.00,789.0,WeatherSnoop3.0,2013-10-07 21:19:00,
2013-10-07 14:24:00,78.6,27.1,29.83,East,92,0.0,-999.0,15,0.00,,,0.00,754.0,WeatherSnoop3.0,2013-10-07 21:24:00,
2013-10-07 14:29:00,79.2,25.9,29.83,SSW,196,0.0,-999.0,14,0.00,,,0.00,728.0,WeatherSnoop3.0,2013-10-07 21:29:00,
2013-10-07 14:34:00,79.7,26.3,29.82,South,182,0.0,-999.0,14,0.00,,,0.00,700.0,WeatherSnoop3.0,2013-10-07 21:34:00,
2013-10-07 14:39:00,80.1,28.3,29.82,South,184,0.0,-999.0,15,0.00,,,0.00,682.0,WeatherSnoop3.0,2013-10-07 21:39:00,
2013-10-07 14:44:00,80.5,23.2,29.81,South,187,0.0,-999.0,12,0.00,,,0.00,585.0,WeatherSnoop3.0,2013-10-07 21:44:00,
2013-10-07 14:49:00,81.1,25.6,29.81,South,174,0.0,-999.0,13,0.00,,,0.00,540.0,WeatherSnoop3.0,2013-10-07 21:49:00,
2013-10-07 14:54:00,81.4,32.4,29.81,South,173,0.0,-999.0,17,0.00,,,0.00,359.0,WeatherSnoop3.0,2013-10-07 21:54:00,
2013-10-07 14:59:00,81.3,29.2,29.81,ESE,109,0.0,-999.0,15,0.00,,,0.00,158.0,WeatherSnoop3.0,2013-10-07 21:59:00,
2013-10-07 15:04:00,81.2,27.5,29.81,ESE,109,0.0,-999.0,14,0.00,,,0.00,90.0,WeatherSnoop3.0,2013-10-07 22:04:00,
2013-10-07 15:09:00,81.5,27.7,29.81,ESE,109,0.0,-999.0,14,0.00,,,0.00,69.0,WeatherSnoop3.0,2013-10-07 22:09:00,
2013-10-07 15:14:00,81.9,26.2,29.81,SSE,159,0.0,-999.0,13,0.00,,,0.00,70.0,WeatherSnoop3.0,2013-10-07 22:14:00,
2013-10-07 15:19:00,82.1,28.2,29.81,SSE,147,0.0,-999.0,14,0.00,,,0.00,83.0,WeatherSnoop3.0,2013-10-07 22:19:00,
2013-10-07 15:24:00,82.4,24.7,29.81,SSW,196,0.0,-999.0,12,0.00,,,0.00,125.0,WeatherSnoop3.0,2013-10-07 22:24:00,
2013-10-07 15:29:00,82.9,20.7,29.80,SSW,196,0.0,-999.0,10,0.00,,,0.00,58.0,WeatherSnoop3.0,2013-10-07 22:29:00,
2013-10-07 15:34:00,83.6,21.3,29.80,SSW,195,0.0,-999.0,10,0.00,,,0.00,107.0,WeatherSnoop3.0,2013-10-07 22:34:00,
2013-10-07 15:39:00,84.0,29.7,29.80,SE,133,0.0,-999.0,14,0.00,,,0.00,67.0,WeatherSnoop3.0,2013-10-07 22:39:00,
2013-10-07 15:44:00,84.1,26.0,29.80,SSW,197,2.0,-999.0,12,0.00,,,0.00,93.0,WeatherSnoop3.0,2013-10-07 22:44:00,
2013-10-07 15:49:00,84.1,26.0,29.80,SSW,206,1.0,-999.0,12,0.00,,,0.00,125.0,WeatherSnoop3.0,2013-10-07 22:49:00,
2013-10-07 15:54:00,84.1,29.7,29.79,SSW,196,0.0,-999.0,14,0.00,,,0.00,60.0,WeatherSnoop3.0,2013-10-07 22:54:00,
2013-10-07 15:59:00,83.9,21.5,29.79,SSW,196,0.0,-999.0,10,0.00,,,0.00,107.0,WeatherSnoop3.0,2013-10-07 22:59:00,
2013-10-07 16:04:00,83.9,23.8,29.79,SSW,198,1.0,-999.0,11,0.00,,,0.00,69.0,WeatherSnoop3.0,2013-10-07 23:04:00,
2013-10-07 16:09:00,83.9,23.8,29.79,SSW,205,0.0,-999.0,11,0.00,,,0.00,104.0,WeatherSnoop3.0,2013-10-07 23:09:00,
2013-10-07 16:14:00,83.9,21.5,29.79,SW,217,0.0,-999.0,10,0.00,,,0.00,58.0,WeatherSnoop3.0,2013-10-07 23:14:00,
2013-10-07 16:19:00,83.9,21.5,29.79,SW,217,0.0,-999.0,10,0.00,,,0.00,62.0,WeatherSnoop3.0,2013-10-07 23:19:00,
2013-10-07 16:24:00,83.9,21.5,29.79,SW,217,0.0,-999.0,10,0.00,,,0.00,54.0,WeatherSnoop3.0,2013-10-07 23:24:00,
2013-10-07 16:29:00,83.9,21.5,29.79,NE,44,0.0,-999.0,10,0.00,,,0.00,40.0,WeatherSnoop3.0,2013-10-07 23:29:00,
2013-10-07 16:34:00,83.7,23.6,29.79,NE,44,0.0,-999.0,11,0.00,,,0.00,40.0,WeatherSnoop3.0,2013-10-07 23:34:00,
2013-10-07 16:39:00,83.5,21.2,29.79,West,263,0.0,-999.0,10,0.00,,,0.00,109.0,WeatherSnoop3.0,2013-10-07 23:39:00,
2013-10-07 16:44:00,83.3,21.1,29.79,NNW,328,0.0,-999.0,10,0.00,,,0.00,74.0,WeatherSnoop3.0,2013-10-07 23:44:00,
2013-10-07 16:49:00,83.1,20.9,29.79,NNW,331,0.0,-999.0,10,0.00,,,0.00,111.0,WeatherSnoop3.0,2013-10-07 23:49:00,
2013-10-07 16:54:00,82.9,20.7,29.79,NNW,331,0.0,-999.0,10,0.00,,,0.00,90.0,WeatherSnoop3.0,2013-10-07 23:54:00,
2013-10-07 16:59:00,82.7,20.6,29.79,NNW,338,0.0,-999.0,10,0.00,,,0.00,44.0,WeatherSnoop3.0,2013-10-07 23:59:00,
2013-10-07 17:04:00,82.2,20.2,29.79,North,355,0.0,-999.0,10,0.00,,,0.00,39.0,WeatherSnoop3.0,2013-10-08 00:04:00,
2013-10-07 17:09:00,81.7,22.1,29.79,North,355,0.0,-999.0,11,0.00,,,0.00,33.0,WeatherSnoop3.0,2013-10-08 00:09:00,
2013-10-07 17:14:00,81.4,23.9,29.79,North,355,0.0,-999.0,12,0.00,,,0.00,32.0,WeatherSnoop3.0,2013-10-08 00:14:00,
2013-10-07 17:19:00,81.2,23.8,29.79,North,355,0.0,-999.0,12,0.00,,,0.00,32.0,WeatherSnoop3.0,2013-10-08 00:19:00,
2013-10-07 17:24:00,81.0,21.5,29.79,North,355,0.0,-999.0,11,0.00,,,0.00,39.0,WeatherSnoop3.0,2013-10-08 00:24:00,
2013-10-07 17:29:00,80.8,21.4,29.79,North,355,0.0,-999.0,11,0.00,,,0.00,26.0,WeatherSnoop3.0,2013-10-08 00:29:00,
2013-10-07 17:34:00,80.6,21.2,29.79,North,355,0.0,-999.0,11,0.00,,,0.00,25.0,WeatherSnoop3.0,2013-10-08 00:34:00,
2013-10-07 17:39:00,80.3,21.0,29.79,North,355,0.0,-999.0,11,0.00,,,0.00,23.0,WeatherSnoop3.0,2013-10-08 00:39:00,
2013-10-07 17:44:00,80.1,20.9,29.79,North,355,0.0,-999.0,11,0.00,,,0.00,19.0,WeatherSnoop3.0,2013-10-08 00:44:00,
2013-10-07 17:49:00,79.8,22.7,29.79,North,355,0.0,-999.0,12,0.00,,,0.00,14.0,WeatherSnoop3.0,2013-10-08 00:49:00,
2013-10-07 17:54:00,79.4,20.3,29.80,North,355,0.0,-999.0,11,0.00,,,0.00,12.0,WeatherSnoop3.0,2013-10-08 00:54:00,
2013-10-07 17:59:00,78.9,19.9,29.80,North,351,0.0,-999.0,11,0.00,,,0.00,11.0,WeatherSnoop3.0,2013-10-08 00:59:00,
2013-10-07 18:04:00,78.3,19.5,29.80,North,351,0.0,-999.0,11,0.00,,,0.00,11.0,WeatherSnoop3.0,2013-10-08 01:04:00,
2013-10-07 18:09:00,77.8,19.1,29.80,North,351,0.0,-999.0,11,0.00,,,0.00,9.0,WeatherSnoop3.0,2013-10-08 01:09:00,
2013-10-07 18:14:00,77.4,20.8,29.79,WNW,303,0.0,-999.0,12,0.00,,,0.00,7.0,WeatherSnoop3.0,2013-10-08 01:14:00,
2013-10-07 18:19:00,76.9,20.4,29.80,WNW,303,0.0,-999.0,12,0.00,,,0.00,5.0,WeatherSnoop3.0,2013-10-08 01:19:00,
2013-10-07 18:24:00,76.5,20.1,29.80,WNW,302,0.0,-999.0,12,0.00,,,0.00,5.0,WeatherSnoop3.0,2013-10-08 01:24:00,
2013-10-07 18:29:00,76.0,21.6,29.80,NNE,13,0.0,-999.0,13,0.00,,,0.00,0.0,WeatherSnoop3.0,2013-10-08 01:29:00,
2013-10-07 18:34:00,75.6,21.3,29.80,North,355,0.0,-999.0,13,0.00,,,0.00,0.0,WeatherSnoop3.0,2013-10-08 01:34:00,
2013-10-07 18:39:00,75.3,21.1,29.80,North,355,0.0,-999.0,13,0.00,,,0.00,0.0,WeatherSnoop3.0,2013-10-08 01:39:00,
2013-10-07 18:44:00,74.9,20.8,29.80,WNW,298,0.0,-999.0,13,0.00,,,0.00,0.0,WeatherSnoop3.0,2013-10-08 01:44:00,
2013-10-07 18:49:00,74.5,22.2,29.80,WNW,298,0.0,-999.0,14,0.00,,,0.00,0.0,WeatherSnoop3.0,2013-10-08 01:49:00,
2013-10-07 18:54:00,74.1,23.5,29.80,WNW,298,0.0,-999.0,15,0.00,,,0.00,0.0,WeatherSnoop3.0,2013-10-08 01:54:00,
2013-10-07 18:59:00,73.8,23.3,29.80,WNW,298,0.0,-999.0,15,0.00,,,0.00,0.0,WeatherSnoop3.0,2013-10-08 01:59:00,
2013-10-07 19:04:00,73.4,24.5,29.80,WNW,296,0.0,-999.0,16,0.00,,,0.00,0.0,WeatherSnoop3.0,2013-10-08 02:04:00,
2013-10-07 19:09:00,73.0,24.2,29.81,WNW,296,0.0,-999.0,16,0.00,,,0.00,0.0,WeatherSnoop3.0,2013-10-08 02:09:00,
2013-10-07 19:14:00,72.7,25.4,29.80,WNW,296,0.0,-999.0,17,0.00,,,0.00,0.0,WeatherSnoop3.0,2013-10-08 02:14:00,
2013-10-07 19:19:00,72.3,26.4,29.80,WNW,285,0.0,-999.0,18,0.00,,,0.00,0.0,WeatherSnoop3.0,2013-10-08 02:19:00,
2013-10-07 19:24:00,72.0,26.2,29.80,WNW,285,0.0,-999.0,18,0.00,,,0.00,0.0,WeatherSnoop3.0,2013-10-08 02:24:00,
2013-10-07 19:29:00,71.7,27.2,29.81,WNW,284,1.0,-999.0,19,0.00,,,0.00,0.0,WeatherSnoop3.0,2013-10-08 02:29:00,
2013-10-07 19:34:00,71.5,27.1,29.81,West,269,0.0,-999.0,19,0.00,,,0.00,0.0,WeatherSnoop3.0,2013-10-08 02:34:00,
2013-10-07 19:39:00,71.3,26.9,29.81,West,281,0.0,-999.0,19,0.00,,,0.00,0.0,WeatherSnoop3.0,2013-10-08 02:39:00,
2013-10-07 19:44:00,71.0,26.7,29.81,WNW,302,1.0,-999.0,19,0.00,,,0.00,0.0,WeatherSnoop3.0,2013-10-08 02:44:00,
2013-10-07 19:49:00,70.7,26.4,29.81,NW,315,0.0,-999.0,19,0.00,,,0.00,0.0,WeatherSnoop3.0,2013-10-08 02:49:00,
2013-10-07 19:54:00,70.4,26.2,29.81,West,271,0.0,-999.0,19,0.00,,,0.00,0.0,WeatherSnoop3.0,2013-10-08 02:54:00,
2013-10-07 19:59:00,70.2,26.0,29.81,West,277,1.0,-999.0,19,0.00,,,0.00,0.0,WeatherSnoop3.0,2013-10-08 02:59:00,
2013-10-07 20:04:00,69.9,25.8,29.82,West,277,0.0,-999.0,19,0.00,,,0.00,0.0,WeatherSnoop3.0,2013-10-08 03:04:00,
2013-10-07 20:09:00,69.7,25.6,29.82,West,277,0.0,-999.0,19,0.00,,,0.00,0.0,WeatherSnoop3.0,2013-10-08 03:09:00,
2013-10-07 20:14:00,69.4,25.4,29.82,WSW,249,0.0,-999.0,19,0.00,,,0.00,0.0,WeatherSnoop3.0,2013-10-08 03:14:00,
2013-10-07 20:19:00,69.2,25.2,29.82,WSW,250,0.0,-999.0,19,0.00,,,0.00,0.0,WeatherSnoop3.0,2013-10-08 03:19:00,
2013-10-07 20:24:00,68.9,24.9,29.82,West,267,0.0,-999.0,19,0.00,,,0.00,0.0,WeatherSnoop3.0,2013-10-08 03:24:00,
2013-10-07 20:29:00,68.6,24.7,29.83,West,277,0.0,-999.0,19,0.00,,,0.00,0.0,WeatherSnoop3.0,2013-10-08 03:29:00,
2013-10-07 20:34:00,68.4,24.5,29.82,West,279,0.0,-999.0,19,0.00,,,0.00,0.0,WeatherSnoop3.0,2013-10-08 03:34:00,
2013-10-07 20:39:00,68.1,24.3,29.83,West,279,0.0,-999.0,19,0.00,,,0.00,0.0,WeatherSnoop3.0,2013-10-08 03:39:00,
2013-10-07 20:44:00,67.9,24.1,29.83,West,279,0.0,-999.0,19,0.00,,,0.00,0.0,WeatherSnoop3.0,2013-10-08 03:44:00,
2013-10-07 20:49:00,67.6,23.9,29.83,WNW,283,0.0,-999.0,19,0.00,,,0.00,0.0,WeatherSnoop3.0,2013-10-08 03:49:00,
2013-10-07 20:54:00,67.3,23.6,29.83,North,350,6.0,-999.0,19,0.00,,,0.00,0.0,WeatherSnoop3.0,2013-10-08 03:54:00,
2013-10-07 20:59:00,66.8,24.4,29.83,North,360,0.0,-999.0,20,0.00,,,0.00,0.0,WeatherSnoop3.0,2013-10-08 03:59:00,
2013-10-07 21:01:00,66.7,24.4,29.83,North,360,0.0,-999.0,20,0.00,,,0.00,0.0,WeatherSnoop3.0,2013-10-08 04:01:00,
2013-10-07 21:02:00,66.6,24.3,29.83,WNW,302,0.0,-999.0,20,0.00,,,0.00,0.0,WeatherSnoop3.0,2013-10-08 04:02:00,
2013-10-07 21:04:00,66.4,22.9,29.83,North,355,0.0,-999.0,19,0.00,,,0.00,0.0,WeatherSnoop3.0,2013-10-08 04:04:00,
2013-10-07 21:05:00,66.3,22.8,29.84,North,350,1.0,-999.0,19,0.00,,,0.00,0.0,WeatherSnoop3.0,2013-10-08 04:05:00,
2013-10-07 21:07:00,66.1,23.9,29.83,North,350,0.0,-999.0,20,0.00,,,0.00,0.0,WeatherSnoop3.0,2013-10-08 04:07:00,
2013-10-07 21:12:00,65.8,23.6,29.84,North,360,0.0,-999.0,20,0.00,,,0.00,0.0,WeatherSnoop3.0,2013-10-08 04:12:00,
2013-10-07 21:17:00,65.4,24.5,29.84,North,360,0.0,-999.0,21,0.00,,,0.00,0.0,WeatherSnoop3.0,2013-10-08 04:17:00,
2013-10-07 21:22:00,64.9,25.2,29.83,North,360,0.0,-999.0,22,0.00,,,0.00,0.0,WeatherSnoop3.0,2013-10-08 04:22:00,
2013-10-07 21:27:00,64.4,25.8,29.84,North,360,0.0,-999.0,23,0.00,,,0.00,0.0,WeatherSnoop3.0,2013-10-08 04:27:00,
2013-10-07 21:32:00,63.8,24.2,29.84,North,360,0.0,-999.0,22,0.00,,,0.00,0.0,WeatherSnoop3.0,2013-10-08 04:32:00,
2013-10-07 21:37:00,63.1,24.7,29.84,North,360,0.0,-999.0,23,0.00,,,0.00,0.0,WeatherSnoop3.0,2013-10-08 04:37:00,
2013-10-07 21:42:00,62.3,23.0,29.84,North,360,0.0,-999.0,22,0.00,,,0.00,0.0,WeatherSnoop3.0,2013-10-08 04:42:00,
2013-10-07 21:47:00,61.6,23.5,29.84,North,360,0.0,-999.0,23,0.00,,,0.00,0.0,WeatherSnoop3.0,2013-10-08 04:47:00,
2013-10-07 21:52:00,60.8,24.8,29.85,North,360,0.0,-999.0,25,0.00,,,0.00,0.0,WeatherSnoop3.0,2013-10-08 04:52:00,
2013-10-07 21:57:00,60.1,24.2,29.84,North,360,0.0,-999.0,25,0.00,,,0.00,0.0,WeatherSnoop3.0,2013-10-08 04:57:00,
2013-10-07 22:02:00,59.3,23.5,29.85,North,360,0.0,-999.0,25,0.00,,,0.00,0.0,WeatherSnoop3.0,2013-10-08 05:02:00,
2013-10-07 22:07:00,59.0,22.3,29.84,North,360,0.0,-999.0,24,0.00,,,0.00,0.0,WeatherSnoop3.0,2013-10-08 05:07:00,
2013-10-07 22:12:00,58.6,21.9,29.84,North,360,0.0,-999.0,24,0.00,,,0.00,0.0,WeatherSnoop3.0,2013-10-08 05:12:00,
2013-10-07 22:17:00,58.3,22.6,29.84,North,360,0.0,-999.0,25,0.00,,,0.00,0.0,WeatherSnoop3.0,2013-10-08 05:17:00,
2013-10-07 22:22:00,58.2,21.6,29.85,North,360,0.0,-999.0,24,0.00,,,0.00,0.0,WeatherSnoop3.0,2013-10-08 05:22:00,
2013-10-07 22:27:00,58.1,22.5,29.85,North,360,0.0,-999.0,25,0.00,,,0.00,0.0,WeatherSnoop3.0,2013-10-08 05:27:00,
2013-10-07 22:32:00,58.0,22.4,29.84,North,360,0.0,-999.0,25,0.00,,,0.00,0.0,WeatherSnoop3.0,2013-10-08 05:32:00,
2013-10-07 22:37:00,58.1,21.5,29.84,NNE,33,0.0,-999.0,24,0.00,,,0.00,0.0,WeatherSnoop3.0,2013-10-08 05:37:00,
2013-10-07 22:42:00,58.3,21.7,29.84,NNE,33,0.0,-999.0,24,0.00,,,0.00,0.0,WeatherSnoop3.0,2013-10-08 05:42:00,
2013-10-07 22:47:00,58.4,20.8,29.84,NNW,340,1.0,-999.0,23,0.00,,,0.00,0.0,WeatherSnoop3.0,2013-10-08 05:47:00,
2013-10-07 22:52:00,58.5,20.8,29.84,NNW,340,0.0,-999.0,23,0.00,,,0.00,0.0,WeatherSnoop3.0,2013-10-08 05:52:00,
2013-10-07 22:57:00,58.9,21.2,29.84,North,349,0.0,-999.0,23,0.00,,,0.00,0.0,WeatherSnoop3.0,2013-10-08 05:57:00,
2013-10-07 23:02:00,59.0,21.3,29.84,North,355,0.0,-999.0,23,0.00,,,0.00,0.0,WeatherSnoop3.0,2013-10-08 06:02:00,
2013-10-07 23:07:00,59.3,20.5,29.84,NNE,12,1.0,-999.0,22,0.00,,,0.00,0.0,WeatherSnoop3.0,2013-10-08 06:07:00,
2013-10-07 23:12:00,59.7,20.8,29.83,NNE,21,0.0,-999.0,22,0.00,,,0.00,0.0,WeatherSnoop3.0,2013-10-08 06:12:00,
2013-10-07 23:17:00,59.8,20.9,29.84,NNE,21,0.0,-999.0,22,0.00,,,0.00,0.0,WeatherSnoop3.0,2013-10-08 06:17:00,
2013-10-07 23:22:00,59.9,19.9,29.84,NNW,340,0.0,-999.0,21,0.00,,,0.00,0.0,WeatherSnoop3.0,2013-10-08 06:22:00,
2013-10-07 23:27:00,60.1,21.1,29.84,NNE,29,0.0,-999.0,22,0.00,,,0.00,0.0,WeatherSnoop3.0,2013-10-08 06:27:00,
2013-10-07 23:32:00,60.2,21.2,29.83,NNE,29,0.0,-999.0,22,0.00,,,0.00,0.0,WeatherSnoop3.0,2013-10-08 06:32:00,
2013-10-07 23:37:00,60.2,21.2,29.83,NE,41,0.0,-999.0,22,0.00,,,0.00,0.0,WeatherSnoop3.0,2013-10-08 06:37:00,
2013-10-07 23:42:00,60.3,21.3,29.83,NW,325,0.0,-999.0,22,0.00,,,0.00,0.0,WeatherSnoop3.0,2013-10-08 06:42:00,
2013-10-07 23:47:00,60.2,20.1,29.83,NNE,15,0.0,-999.0,21,0.00,,,0.00,0.0,WeatherSnoop3.0,2013-10-08 06:47:00,
2013-10-07 23:52:00,60.2,20.1,29.83,NNE,29,0.0,-999.0,21,0.00,,,0.00,0.0,WeatherSnoop3.0,2013-10-08 06:52:00,
2013-10-07 23:57:00,60.3,20.2,29.83,NNE,26,0.0,-999.0,21,0.00,,,0.00,0.0,WeatherSnoop3.0,2013-10-08 06:57:00,